^^
Meteo Knjazevac Station Historical Data
Daily Summary for April 10, 2021 Units:  Metric    English   Both
Daily Weekly Monthly Yearly Custom
  High: Low: Average:
Temperature: 0.5 °C -0.2 °C 0.1 °C
Dew Point: 0.4 °C -0.3 °C -0.1 °C
Humidity: 99% 99% 99%
Wind Speed: 3.2km/h 0km/h 1km/h
Wind Gust: 11.3km/h - -
Wind- - South
Pressure: 1021.6 hPa 1019.9 hPa -
Precipitation: 0 mm    
Historical Graphs
 
 
Tabular Data for April 10, 2021
Time Temperature Dew Point Pressure Wind Wind Speed Wind Gust Humidity Rainfall Rate (Hourly) solar Conditions
00:00 0.2 °C 0.1 °C 1020.5 hPa NW 1.6 km/h 3.2 km/h 99% 0 mm 0 W/m2
00:10 0.2 °C 0.1 °C 1020.2 hPa SE 1.6 km/h 6.4 km/h 99% 0 mm 0 W/m2
00:20 0.2 °C 0.1 °C 1020.2 hPa ESE 1.6 km/h 8 km/h 99% 0 mm 0 W/m2
00:30 0.2 °C 0.1 °C 1020.2 hPa Calm   8 km/h 99% 0 mm 0 W/m2
00:40 0.1 °C -0.1 °C 1020.2 hPa North 1.6 km/h 6.4 km/h 99% 0 mm 0 W/m2
00:50 0.1 °C -0.1 °C 1020.2 hPa NE 1.6 km/h 4.8 km/h 99% 0 mm 0 W/m2
01:00 0.1 °C -0.1 °C 1019.9 hPa NNE 3.2 km/h 9.7 km/h 99% 0 mm 0 W/m2
01:10 0.1 °C -0.1 °C 1019.9 hPa NNE 1.6 km/h 8 km/h 99% 0 mm 0 W/m2
01:20 0.1 °C -0.1 °C 1019.9 hPa Calm   4.8 km/h 99% 0 mm 0 W/m2
01:30 0.1 °C -0.1 °C 1020.2 hPa NW 1.6 km/h 6.4 km/h 99% 0 mm 0 W/m2
01:40 0.1 °C -0.1 °C 1019.9 hPa South 1.6 km/h 4.8 km/h 99% 0 mm 0 W/m2
01:50 0.1 °C -0.1 °C 1020.2 hPa Calm   3.2 km/h 99% 0 mm 0 W/m2
02:00 0.1 °C -0.1 °C 1019.9 hPa Calm   4.8 km/h 99% 0 mm 0 W/m2
02:10 0.1 °C -0.1 °C 1020.2 hPa NNE 1.6 km/h 8 km/h 99% 0 mm 0 W/m2
02:20 0.1 °C -0.1 °C 1020.2 hPa Calm   4.8 km/h 99% 0 mm 0 W/m2
02:30 0.1 °C -0.1 °C 1020.2 hPa North 1.6 km/h 6.4 km/h 99% 0 mm 0 W/m2
02:40 0.1 °C -0.1 °C 1020.2 hPa NNE 1.6 km/h 8 km/h 99% 0 mm 0 W/m2
02:50 0 °C -0.1 °C 1020.2 hPa Calm   6.4 km/h 99% 0 mm 0 W/m2
03:00 0.1 °C -0.1 °C 1020.2 hPa North 1.6 km/h 6.4 km/h 99% 0 mm 0 W/m2
03:10 0 °C -0.1 °C 1020.2 hPa NNE 3.2 km/h 6.4 km/h 99% 0 mm 0 W/m2
03:20 0 °C -0.1 °C 1020.2 hPa North 1.6 km/h 6.4 km/h 99% 0 mm 0 W/m2
03:30 0 °C -0.1 °C 1019.9 hPa ENE 1.6 km/h 4.8 km/h 99% 0 mm 0 W/m2
03:40 0 °C -0.1 °C 1020.2 hPa NW 1.6 km/h 4.8 km/h 99% 0 mm 0 W/m2
03:50 0 °C -0.1 °C 1020.2 hPa NW 3.2 km/h 11.3 km/h 99% 0 mm 0 W/m2
04:00 -0.1 °C -0.2 °C 1020.5 hPa WNW 3.2 km/h 4.8 km/h 99% 0 mm 0 W/m2
04:10 0 °C -0.1 °C 1020.2 hPa North 1.6 km/h 4.8 km/h 99% 0 mm 0 W/m2
04:20 -0.1 °C -0.2 °C 1020.5 hPa North 1.6 km/h 3.2 km/h 99% 0 mm 0 W/m2
04:30 -0.1 °C -0.2 °C 1020.5 hPa Calm   3.2 km/h 99% 0 mm 0 W/m2
04:40 -0.1 °C -0.2 °C 1020.5 hPa Calm   3.2 km/h 99% 0 mm 0 W/m2
04:50 -0.1 °C -0.2 °C 1020.5 hPa Calm   4.8 km/h 99% 0 mm 0 W/m2
05:00 -0.1 °C -0.2 °C 1020.5 hPa North 1.6 km/h 3.2 km/h 99% 0 mm 0 W/m2
05:10 -0.1 °C -0.2 °C 1020.5 hPa Calm   4.8 km/h 99% 0 mm 0 W/m2
05:20 -0.1 °C -0.2 °C 1020.5 hPa Calm   6.4 km/h 99% 0 mm 0 W/m2
05:30 -0.1 °C -0.2 °C 1020.5 hPa NNE 1.6 km/h 4.8 km/h 99% 0 mm 0 W/m2
05:40 -0.2 °C -0.3 °C 1020.5 hPa North 1.6 km/h 6.4 km/h 99% 0 mm 0 W/m2
05:50 -0.2 °C -0.3 °C 1020.5 hPa Calm   6.4 km/h 99% 0 mm 0 W/m2
06:00 -0.2 °C -0.3 °C 1020.5 hPa North 1.6 km/h 4.8 km/h 99% 0 mm 0 W/m2
06:10 -0.2 °C -0.3 °C 1020.5 hPa NNE 1.6 km/h 3.2 km/h 99% 0 mm 0 W/m2
06:20 -0.2 °C -0.3 °C 1020.5 hPa NE 1.6 km/h 3.2 km/h 99% 0 mm 0 W/m2
06:30 -0.2 °C -0.3 °C 1020.5 hPa North 1.6 km/h 4.8 km/h 99% 0 mm 0 W/m2
06:40 -0.2 °C -0.3 °C 1020.9 hPa Calm   3.2 km/h 99% 0 mm 0 W/m2
06:50 -0.2 °C -0.3 °C 1020.5 hPa Calm   8 km/h 99% 0 mm 0 W/m2
07:00 -0.2 °C -0.3 °C 1020.5 hPa Calm   3.2 km/h 99% 0 mm 0 W/m2
07:10 -0.2 °C -0.3 °C 1020.5 hPa Calm   3.2 km/h 99% 0 mm 1 W/m2
07:20 -0.2 °C -0.3 °C 1020.5 hPa WSW 1.6 km/h 3.2 km/h 99% 0 mm 1 W/m2
07:30 -0.2 °C -0.3 °C 1020.5 hPa SW 1.6 km/h 3.2 km/h 99% 0 mm 3 W/m2
07:40 -0.2 °C -0.3 °C 1020.9 hPa West 1.6 km/h 3.2 km/h 99% 0 mm 2 W/m2
07:50 -0.2 °C -0.3 °C 1020.9 hPa WSW 1.6 km/h 4.8 km/h 99% 0 mm 4 W/m2
08:00 -0.1 °C -0.2 °C 1021.2 hPa WSW 1.6 km/h 3.2 km/h 99% 0 mm 7 W/m2
08:10 -0.1 °C -0.2 °C 1021.2 hPa Calm   3.2 km/h 99% 0 mm 7 W/m2
08:20 -0.1 °C -0.2 °C 1021.2 hPa Calm   3.2 km/h 99% 0 mm 12 W/m2
08:30 -0.1 °C -0.2 °C 1021.2 hPa Calm   4.8 km/h 99% 0 mm 15 W/m2
08:40 0 °C -0.1 °C 1021.2 hPa Calm   3.2 km/h 99% 0 mm 13 W/m2
08:50 0 °C -0.1 °C 1021.6 hPa WSW 1.6 km/h 3.2 km/h 99% 0 mm 16 W/m2
09:00 0 °C -0.1 °C 1021.6 hPa SW 1.6 km/h 3.2 km/h 99% 0 mm 14 W/m2
09:10 0 °C -0.1 °C 1021.6 hPa WSW 1.6 km/h 3.2 km/h 99% 0 mm 18 W/m2
09:20 0.1 °C -0.1 °C 1021.6 hPa Calm   3.2 km/h 99% 0 mm 23 W/m2
09:30 0.1 °C -0.1 °C 1021.6 hPa SW 1.6 km/h 3.2 km/h 99% 0 mm 17 W/m2
09:40 0.1 °C -0.1 °C 1021.6 hPa Calm   1.6 km/h 99% 0 mm 21 W/m2
09:50 0.2 °C 0.1 °C 1021.6 hPa SW 1.6 km/h 3.2 km/h 99% 0 mm 18 W/m2
10:00 0.2 °C 0.1 °C 1021.6 hPa Calm   3.2 km/h 99% 0 mm 19 W/m2
10:10 0.2 °C 0.1 °C 1021.6 hPa Calm   3.2 km/h 99% 0 mm 23 W/m2
10:20 0.2 °C 0.1 °C 1021.6 hPa WSW 1.6 km/h 3.2 km/h 99% 0 mm 20 W/m2
10:30 0.3 °C 0.2 °C 1021.2 hPa Calm   3.2 km/h 99% 0 mm 25 W/m2
10:40 0.3 °C 0.2 °C 1020.9 hPa Calm   3.2 km/h 99% 0 mm 27 W/m2
10:50 0.3 °C 0.2 °C 1020.9 hPa WSW 1.6 km/h 3.2 km/h 99% 0 mm 19 W/m2
11:00 0.3 °C 0.2 °C 1020.9 hPa Calm   3.2 km/h 99% 0 mm 21 W/m2
11:10 0.3 °C 0.2 °C 1020.9 hPa Calm   3.2 km/h 99% 0 mm 24 W/m2
11:20 0.3 °C 0.2 °C 1020.9 hPa Calm   3.2 km/h 99% 0 mm 32 W/m2
11:30 0.4 °C 0.3 °C 1020.9 hPa West 1.6 km/h 3.2 km/h 99% 0 mm 22 W/m2
11:40 0.4 °C 0.3 °C 1020.5 hPa Calm   3.2 km/h 99% 0 mm 26 W/m2
11:50 0.5 °C 0.4 °C 1020.5 hPa Calm   3.2 km/h 99% 0 mm 23 W/m2
12:00 0.5 °C 0.4 °C 1020.5 hPa NNW 1.6 km/h 3.2 km/h 99% 0 mm 25 W/m2
12:10 0.5 °C 0.4 °C 1020.5 hPa WSW 1.6 km/h 3.2 km/h 99% 0 mm 17 W/m2
12:20 0.5 °C 0.4 °C 1020.5 hPa Calm   3.2 km/h 99% 0 mm 22 W/m2
12:30 0.5 °C 0.4 °C 1020.2 hPa Calm   3.2 km/h 99% 0 mm 21 W/m2
12:40 0.5 °C 0.4 °C 1020.2 hPa Calm   3.2 km/h 99% 0 mm 21 W/m2
Knjazevac, Serbia
Compliments of Weather Underground - 2 mb